Location: Cussy
(47.0410°N, 4.6412°E)
Time: 15:46:49
(UTC+00:00)

Cosmos 1939 Rocket - Pass Details

Date: 30 November 2020
Orbit: 532 x 584 km, 97.4° (Epoch: 28 January)

Event Time Altitude Azimuth Distance (km) Brightness Sun altitude
Rises 17:32:22 0° 161° (SSE) 2,671 6.3 -16.1°
Reaches altitude 10° 17:34:28 10° 159° (SSE) 1,790 5.4 -16.4°
Maximum altitude 17:38:18 73° 75° (ENE) 573 2.6 -17.1°
Drops below altitude 10° 17:42:15 10° 351° (N) 1,829 5.4 -17.7°
Sets 17:44:24 0° 350° (N) 2,737 6.4 -18.1°
